Location: Branche des Alpilles
(43.6087°N, 4.6976°E)
Time: 08:31:35
(UTC+00:00)

ARGOS - Pass Details

Date: 30 November 2020
Orbit: 820 x 835 km, 98.4° (Epoch: 25 January)

Event Time Altitude Azimuth Distance (km) Brightness Sun altitude
Exits shadow 18:27:18 25° 9° (N) 1,608 4.5 -25.0°
Drops below altitude 10° 18:29:39 10° 357° (N) 2,443 5.5 -25.4°
Sets 18:32:05 0° 352° (N) 3,378 6.4 -25.8°
